Flag for French Polynesia Weather past 2 weeks in Gambier Islands, French Polynesia

Now
71 °F

Mild.


Feels Like: 65 °F
Forecast: 72 / 76 °F
Wind: 6 mph from Northeast

Location: Rikitea

Current Time: Sep 23, 2014 at 3:35:33 AM

Latest Report: Sep 23, 2014 at 2:00 AM


Visibility: N/A

Pressure: 30.08 "Hg

Humidity: 95%

Dew point: 69 °F

Location of Gambier IslandsLocation

Historic Weather in Gambier Islands — Graph

°F

Gambier Islands temperature yesterday

Maximum temperature yesterday: 78 °F (at 1:00 PM)
Minimum temperature yesterday: 71 °F (at 4:00 AM)
Average temperature yesterday: 74 °F

Past Weeks' High & Low Weather Summary

 TemperatureHumidityPressure
High79 °F (Sep 15, 11:00 AM)97% (Sep 16, 7:00 AM)30.24 "Hg (Sep 16, 7:00 AM)
Low64 °F (Sep 17, 6:00 AM)65% (Sep 11, 11:00 AM)29.90 "Hg (Sep 15, 2:00 AM)
Average72 °F83%30.08 "Hg
* Reported Sep 8 2:00 AM — Sep 23 2:00 AM, Gambier Islands, Weather by CustomWeather, © 2014

Note: Actual official high and low records may vary slightly from our data, if they occured in-between our weather recording intervals... More about our weather records

Advertising

Gambier Islands weather history for previous 24 hours

 ConditionsComfort  
Time TempWeatherWind HumidityBarometerVisibility
2:00 AM
Sep 23
71 °FMild.6 mph95%30.08 "HgN/A
1:00 AM71 °FMild.5 mph94%30.10 "HgN/A
12:00 AM71 °FMild.5 mph94%30.11 "HgN/A
11:00 PM
Sep 22
71 °FMild.6 mph93%30.13 "HgN/A
10:00 PM71 °FMild.6 mph94%30.12 "HgN/A
9:00 PM72 °FMild.5 mph93%30.13 "HgN/A
8:00 PM72 °FMild.6 mph92%30.13 "HgN/A
7:00 PM72 °FMild.6 mph91%30.11 "HgN/A
6:00 PM73 °FMild.3 mph88%30.11 "HgN/A
5:00 PM74 °FPassing clouds.3 mph84%30.08 "Hg25 mi
4:00 PM75 °FMild.5 mph81%30.07 "HgN/A
3:00 PM77 °FPassing clouds.3 mph77%30.06 "Hg25 mi
2:00 PM78 °FScattered clouds.5 mph76%30.07 "Hg25 mi
1:00 PM78 °FScattered clouds.7 mph76%30.09 "Hg25 mi
12:00 PM78 °FScattered clouds.5 mph77%30.12 "Hg19 mi
11:00 AM76 °FMild.7 mph78%30.13 "HgN/A
10:00 AM78 °FWarm.6 mph78%30.14 "HgN/A
9:00 AM77 °FMild.5 mph81%30.15 "HgN/A
8:00 AM75 °FScattered clouds.5 mph80%30.15 "Hg19 mi
7:00 AM72 °FMild.6 mph88%30.13 "HgN/A
6:00 AM71 °FPartly sunny.5 mph91%30.11 "Hg19 mi
5:00 AM71 °FMild.5 mph91%30.10 "HgN/A
4:00 AM71 °FMild.7 mph93%30.08 "HgN/A
3:00 AM71 °FMild.5 mph93%30.09 "HgN/A
Weather by CustomWeather, © 2014

See weather overviewHow to use our weather pages